Regional Weather Roundup
Issued by NWS Charleston, SC

Current Version | Previous Version | Text Only | Print | Product List | Glossary Off
Versions: 1 2 3 4 5 6 7 8 9 10 11 12 13 14 15 16 17 18 19 20 21 22 23 24 25 26 27 28 29 30 31 32 33 34 35 36 37 38 39 40 41 42 43 44 45 46 47 48 49 50

000
ASUS42 KCHS 190310
RWRCHS

REGIONAL WEATHER ROUNDUP
NATIONAL WEATHER SERVICE CHARLESTON SC
1100 PM EDT FRI APR 18 2014

NOTE: "FAIR" INDICATES FEW OR NO CLOUDS BELOW 12,000 FEET WITH NO
SIGNIFICANT WEATHER AND/OR OBSTRUCTIONS TO VISIBILITY.

NOT ALL STATIONS ARE QUALITY CONTROLLED BY THE NATIONAL
WEATHER SERVICE. USE DATA WITH CAUTION...ESPECIALLY
DEWPOINT OBSERVATIONS.

SCZ027-030-031-034>040-042>050-190400-
...SOUTH CAROLINA...

CITY           SKY/WX    TMP DP  RH WIND       PRES   REMARKS
N CHARLESTON   RAIN      59  56  89 VRB3G25   30.06R FOG
WATERFRONT PRK   N/A     61 N/A N/A MISG        N/A
FORT JOHNSON   NOT AVBL
MOUNT PLEASANT HVY RAIN N/A N/A N/A NE8       30.05R VSB 3/4
JOHNS ISLAND   RAIN      57  57 100 NE21G33   30.02F VSB 1
PINOPOLIS      NOT AVBL
MONCKS CORNER  RAIN      57  57 100 E12G23      N/A
SUMMERVILLE    RAIN      55  55 100 CALM      30.05F
BEAUFORT MCAS  LGT RAIN  59  57  93 E16G26    29.97F
BEAUFORT ARPT  DRIZZLE   59  59 100 NE18G25   29.96F
HILTON HEAD IS NOT AVBL
GEORGETOWN     NOT AVBL
WALTERBORO     RAIN      55 N/A N/A NE12G18   30.02F
ORANGEBURG     RAIN      54  51  90 NE15G23   30.05F
BARNWELL       HVY RAIN  54  52  94 NE18G25   30.02F
AIKEN          LGT RAIN  52  52 100 NE18G26   30.08F
MANNING        CLOUDY    55 N/A N/A NE13G21   30.08F
KINGSTREE      NOT AVBL
COLUMBIA       RAIN      53  51  93 NE10G22   30.11F FOG
SUMTER         HVY RAIN  54  52  94 NE13      30.12R FOG
FLORENCE       RAIN      54  52  93 NE16      30.14F FOG
MYRTLE BEACH   NOT AVBL
N MYRTLE BEACH LGT RAIN  55  53  93 NE15G26   30.12F FOG

$$

GAZ063-065-086>088-099>101-113>116-118-119-134-136>141-150-190400-
...GEORGIA...

CITY           SKY/WX    TMP DP  RH WIND       PRES   REMARKS
SAVANNAH ARPT  RAIN      60  57  89 E9G26     29.97S
HUNTER AAF     CLOUDY    60  60  98 NE9       29.94F
FORT STEWART   LGT RAIN  57  57 100 N6        29.95F
STATESBORO     NOT AVBL
SYLVANIA       LGT RAIN  56  54  91 NE10G17   30.00S
CLAXTON        LGT RAIN  55  55 100 NE9       29.98F
THOMSON        CLOUDY    50  50 100 N10G16    30.13S
AUGUSTA-BUSH   RAIN      53  49  86 NE12      30.05F FOG
AUGUSTA-DANIEL RAIN      53  50  89 NE15G25   30.06F
SWAINSBORO     RAIN      52  52 100 NE12G18   30.01S
VIDALIA        RAIN      54  54 100 NE14G20   29.97F
ALMA           CLOUDY    56  53  90 NE5       29.95S FOG
WAYCROSS       NOT AVBL
JESUP          DRIZZLE   55  55 100 NE6       29.95F
BRUNSWICK      CLOUDY    61  61 100 CALM      29.94F
SAINT SIMONS   LGT RAIN  62  61  96 VRB3      29.93F

$$

SCZ027-028-034-036>038-045-046-048>050-GAZ119-141-190400-
...LAKE AND SUPPLEMENTAL COASTAL OBSERVATIONS...

STATION/POSITION TIME  TEMP    WIND        PRES    WAVE   SWELL
                       AIR SEA DIR/SP/G            HT/PER HT/PER/DIR
                 (UTC) (F)     (DEG/KT/KT) (MB)    (FT/S) (FT/S/D)
UPR LAKE MARION  NOT AVBL
WINYAH BAY       0200   58      50/ 21     1019.0S
LAKE MURRAY      0200   52      30/  6/ 10 1020.3F
ACE BASIN NERRS  0200   58      50/  7     1017.0S
FORT PULASKI     0300   61 59   40/ 21/ 27 1014.3F
SAPELO ISLAND    0200   62      30/  5     1013.0F

$$

ANZ835-935-AMZ111-154-330-350-352-354-374-450-454-472-190400-
...C-MAN AND BUOY OBSERVATIONS...

STATION/POSITION TIME  TEMP    WIND        PRES    WAVE   SWELL
                       AIR SEA DIR/SP/G            HT/PER HT/PER/DIR
                 (UTC) (F)     (DEG/KT/KT) (MB)    (FT/S) (FT/S/D)
FOLLY BEACH CMAN 0200   59      40/ 34/ 39 1017.0F
BUOY 41004       NOT AVBL
BUOY 41008       0300   66 65  150/  6/  8 1013.4F   7/ 7   7/100/ 7
5E ST. MARYS GA  0300      64                N/A     6/ 7   2/ 80/11
FRYING PAN BUOY  0300   59 65   50/ 27/ 33 1017.9F   8/ 7   3/ 70/12
BUOY 41025       NOT AVBL
CAPE LOOKOUT NC  0200   54      20/ 18/ 22 1022.8F
BUOY 41002       NOT AVBL
BUOY 41010       0300   76 76  140/ 21/ 25 1015.0F   8/10   5/ 70/10
BUOY 41012       NOT AVBL
ST AUGUSTINE FL  0300   65     130/ 10/ 10 1013.6F
CAPERS NEARSHORE NOT AVBL
FRIPP NEARSHORE  0200   60      60/ 23/ 29   N/A


$$


USA.gov is the U.S. government's official web portal to all federal, state and local government web resources and services.